Location: Zagreb
(45.8000°N, 16.0000°E)
Time: 14:59:46
(UTC+02:00)

Transit 2A - Pass Details

Date: 17 August 2022
Orbit: 601 x 956 km, 66.7° (Epoch: 25 September)

Event Time Altitude Azimuth Distance (km) Brightness Sun altitude
Rises 21:03:50 0° 311° (NW) 2,871 11.0 -10.7°
Reaches altitude 10° 21:06:42 10° 291° (WNW) 1,986 9.6 -11.1°
Maximum altitude 21:09:33 17° 251° (WSW) 1,606 8.2 -11.5°
Drops below altitude 10° 21:12:30 10° 211° (SSW) 2,060 8.2 -11.9°
Sets 21:15:34 0° 191° (S) 3,028 8.9 -12.4°
